User: anonymous   Login
Location: Albany
(35.0170°S, 117.8920°E)
Time: 21:51:44
(UTC+08:00)
Language:

Tiros 1 despin weight - Orbit

View from above orbital plane
View from above orbital plane
View from above satellite
View from above satellite

Ground track
Ground track

The orbit data is extracted from the following two-line orbital elements,

1   115U 60002D   21022.94099112 -.00000007  00000-0  26221-4 0  9992
2   115  48.1671 298.7310 0033804 136.5511 223.8074 14.83685244245569
Epoch (UTC): 22 January 2021 22:35:01
Eccentricity: 0.0033804
inclination: 48.1671°
perigee height: 594 km
apogee height: 641 km
right ascension of ascending node: 298.7310°
argument of perigee: 136.5511°
revolutions per day: 14.83685244
mean anomaly at epoch: 223.8074°
orbit number at epoch: 24556

The dashed part of the orbit path shows where the satellite is in the earth's shadow,  

DLR